Flag for Australia Weather past 2 weeks in Cairns, Queensland, Australia

Now
84 °F

Passing clouds.


Feels Like: 82 °F
Forecast: 64 / 82 °F
Wind: 17 mph from Southeast

Location: Cairns Airport

Current Time: Sep 4, 2015 at 11:54:23 AM

Latest Report: Sep 4, 2015 at 11:00 AM


Visibility: N/A

Pressure: 30.07 "Hg

Humidity: 31%

Dew point: 50 °F

Location of CairnsLocation

Historic Weather in Cairns — Graph

°F

Cairns temperature yesterday

Maximum temperature yesterday: 82 °F (at 1:00 PM)
Minimum temperature yesterday: 66 °F (at 5:30 AM)
Average temperature yesterday: 74 °F

Past Weeks' High & Low Weather Summary

 TemperatureHumidityPressure
High84 °F (Sep 4, 10:30 AM)100% (Aug 23, 3:00 PM)30.15 "Hg (Aug 23, 3:00 PM)
Low63 °F (Aug 21, 1:00 AM)27% (Sep 4, 10:30 AM)29.92 "Hg (Aug 30, 3:00 PM)
Average74 °F75%30.04 "Hg
* Reported Aug 20 10:00 AM — Sep 4 10:30 AM, Cairns, Weather by CustomWeather, © 2015

Note: Actual official high and low records may vary slightly from our data, if they occured in-between our weather recording intervals... More about our weather records

Advertising

Cairns weather history for previous 24 hours

 ConditionsComfort  
Time TempWeatherWind HumidityBarometerVisibility
10:30 AM
Fri, Sep 4
84 °FPassing clouds.15 mph27%30.07 "HgN/A
10:00 AM81 °FPassing clouds.12 mph45%30.07 "HgN/A
9:30 AM79 °FPassing clouds.10 mph61%30.09 "HgN/A
9:00 AM79 °FPassing clouds.10 mph61%30.07 "HgN/A
8:30 AM77 °FPassing clouds.5 mph65%30.07 "HgN/A
8:00 AM72 °FPassing clouds.3 mph78%30.07 "HgN/A
7:00 AM66 °FSunny.1 mph94%30.04 "Hg10 mi
6:00 AM64 °FPassing clouds.3 mph94%30.04 "HgN/A
5:30 AM64 °FPassing clouds.1 mph94%30.01 "HgN/A
5:00 AM64 °FPassing clouds.No wind94%30.01 "HgN/A
4:30 AM64 °FPassing clouds.No wind94%30.01 "HgN/A
4:00 AM66 °FPassing clouds.No wind88%30.01 "HgN/A
3:00 AM66 °FPassing clouds.1 mph88%30.01 "HgN/A
2:30 AM66 °FPassing clouds.5 mph94%30.01 "HgN/A
2:00 AM68 °FPassing clouds.5 mph83%30.01 "HgN/A
1:00 AM68 °FPassing clouds.No wind88%30.01 "HgN/A
12:00 AM72 °FPassing clouds.6 mph78%30.04 "HgN/A
11:30 PM
Thu, Sep 3
73 °FPassing clouds.5 mph74%30.04 "HgN/A
11:00 PM73 °FOvercast.6 mph74%30.04 "HgN/A
10:30 PM72 °FClear.7 mph78%30.04 "Hg10 mi
10:00 PM72 °FClear.7 mph78%30.04 "Hg10 mi
9:30 PM72 °FClear.6 mph83%30.04 "Hg10 mi
9:00 PM72 °FClear.6 mph88%30.04 "Hg10 mi
8:30 PM73 °FClear.5 mph83%30.04 "Hg10 mi
8:00 PM73 °FClear.5 mph83%30.04 "Hg10 mi
7:00 PM73 °FClear.No wind83%30.01 "Hg10 mi
6:30 PM73 °FClear.5 mph83%30.01 "Hg10 mi
6:00 PM75 °FSunny.6 mph78%29.98 "Hg10 mi
5:30 PM77 °FSunny.7 mph74%29.98 "Hg10 mi
5:00 PM79 °FSunny.8 mph65%29.98 "Hg10 mi
4:30 PM79 °FSunny.9 mph65%29.98 "Hg10 mi
4:00 PM81 °FSunny.9 mph62%29.98 "Hg10 mi
3:30 PM81 °FPassing clouds.9 mph66%29.98 "HgN/A
3:00 PM79 °FPassing clouds.9 mph65%29.98 "HgN/A
2:00 PM81 °FPassing clouds.10 mph62%30.01 "HgN/A
1:30 PM81 °FPassing clouds.10 mph62%30.01 "HgN/A
1:00 PM82 °FPassing clouds.12 mph62%30.01 "HgN/A
12:30 PM81 °FPassing clouds.10 mph66%30.04 "HgN/A
12:00 PM79 °FPassing clouds.12 mph70%30.07 "HgN/A
11:30 AM81 °FPassing clouds.13 mph62%30.07 "HgN/A
11:00 AM81 °FPassing clouds.12 mph58%30.07 "HgN/A
Weather by CustomWeather, © 2015

See weather overviewHow to use our weather pages